When you browse on this site, cookies collect data to enhance your experience and personalize the content and advertising you see.
Visit our Privacy Policy to learn more. By continuing to use the site, you agree to this use of cookies and data.
  • In Hungary
  • List of Countries
  • For 7 days
  • Water Temperature
  • Satellite Maps
  • Weather Map
  • News
  • Weather Widgets
  • user-avatar
    Login

    Hourly Weather Chios

    Today, 21 January, Monday

    Time Temperature Precipitation Wind Pressure Humidity
    00:00 +10°C° 1.8 mm 5 mps 756 mmHg 90%
    01:00 +11°C° 1.8 mm 4 mps 756 mmHg 91%
    02:00 +11°C° 0 mm 4 mps 756 mmHg 90%
    03:00 +10°C° 1.1 mm 4 mps 756 mmHg 90%
    04:00 +10°C° 1.1 mm 3 mps 756 mmHg 90%
    05:00 +10°C° 1.1 mm 3 mps 755 mmHg 89%
    06:00 +10°C° 0.3 mm 3 mps 756 mmHg 88%
    07:00 +10°C° 0.3 mm 2 mps 756 mmHg 88%
    08:00 +10°C° 0.3 mm 2 mps 756 mmHg 87%
    09:00 +10°C° 0 mm 2 mps 756 mmHg 85%
    10:00 +12°C° 0 mm 2 mps 756 mmHg 82%
    11:00 +12°C° 0 mm 1 mps 757 mmHg 80%
    12:00 +13°C° 0 mm 1 mps 757 mmHg 78%
    13:00 +13°C° 0 mm 1 mps 757 mmHg 76%
    14:00 +13°C° 0 mm 1 mps 756 mmHg 74%
    15:00 +13°C° 0 mm 1 mps 757 mmHg 75%
    16:00 +13°C° 0 mm 1 mps 757 mmHg 76%
    17:00 +12°C° 0 mm 1 mps 757 mmHg 77%
    18:00 +12°C° 0 mm 1 mps 757 mmHg 79%
    19:00 +12°C° 0 mm 1 mps 757 mmHg 80%
    20:00 +11°C° 0 mm 1 mps 757 mmHg 81%
    21:00 +11°C° 0 mm 1 mps 757 mmHg 82%
    22:00 +11°C° 0 mm 1 mps 758 mmHg 83%
    23:00 +11°C° 0 mm 1 mps 758 mmHg 84%

    Tomorrow, 22 January, Tuesday

    Time Temperature Precipitation Wind Pressure Humidity
    00:00 +11°C° 0 mm 1 mps 758 mmHg 84%
    01:00 +11°C° 0 mm 1 mps 758 mmHg 84%
    02:00 +11°C° 0 mm 1 mps 758 mmHg 85%
    03:00 +10°C° 0 mm 1 mps 757 mmHg 85%
    04:00 +10°C° 0 mm 1 mps 757 mmHg 86%
    05:00 +10°C° 0 mm 1 mps 757 mmHg 86%
    06:00 +9°C° 0 mm 2 mps 757 mmHg 86%
    07:00 +10°C° 0 mm 2 mps 757 mmHg 86%
    08:00 +10°C° 0 mm 2 mps 757 mmHg 86%
    09:00 +12°C° 0 mm 2 mps 757 mmHg 84%
    10:00 +11°C° 0 mm 3 mps 757 mmHg 82%
    11:00 +12°C° 0 mm 3 mps 757 mmHg 80%
    12:00 +13°C° 0 mm 4 mps 757 mmHg 80%
    13:00 +13°C° 0 mm 4 mps 756 mmHg 80%
    14:00 +13°C° 0 mm 5 mps 756 mmHg 80%
    15:00 +13°C° 0.1 mm 5 mps 756 mmHg 81%
    16:00 +13°C° 0.1 mm 6 mps 755 mmHg 82%
    17:00 +13°C° 0.1 mm 6 mps 755 mmHg 83%
    18:00 +13°C° 0 mm 6 mps 755 mmHg 84%
    19:00 +12°C° 0 mm 7 mps 755 mmHg 85%
    20:00 +12°C° 0 mm 7 mps 755 mmHg 85%
    21:00 +12°C° 0.3 mm 8 mps 754 mmHg 84%
    22:00 +12°C° 0.3 mm 8 mps 754 mmHg 83%
    23:00 +12°C° 0.3 mm 9 mps 754 mmHg 82%

    Day after tomorrow, 23 January, Wednesday

    Time Temperature Precipitation Wind Pressure Humidity
    00:00 +12°C° 0.2 mm 10 mps 754 mmHg 81%
    01:00 +12°C° 0.2 mm 10 mps 753 mmHg 80%
    02:00 +12°C° 0.2 mm 11 mps 753 mmHg 79%
    03:00 +12°C° 0.2 mm 10 mps 753 mmHg 79%
    04:00 +12°C° 0.2 mm 10 mps 752 mmHg 79%
    05:00 +12°C° 0.2 mm 9 mps 752 mmHg 79%
    06:00 +12°C° 0.2 mm 9 mps 752 mmHg 80%
    07:00 +12°C° 0.2 mm 9 mps 752 mmHg 81%
    08:00 +12°C° 0.2 mm 9 mps 752 mmHg 82%
    09:00 +12°C° 0.9 mm 9 mps 752 mmHg 83%
    10:00 +12°C° 0.9 mm 9 mps 753 mmHg 84%
    11:00 +12°C° 0.9 mm 9 mps 753 mmHg 85%
    12:00 +13°C° 0.3 mm 9 mps 752 mmHg 82%
    13:00 +13°C° 0.3 mm 9 mps 752 mmHg 80%
    14:00 +13°C° 0.3 mm 10 mps 751 mmHg 78%
    15:00 +13°C° 0.6 mm 10 mps 751 mmHg 80%
    16:00 +13°C° 0.6 mm 10 mps 750 mmHg 81%
    17:00 +12°C° 0.6 mm 11 mps 750 mmHg 83%
    18:00 +12°C° 0.5 mm 11 mps 750 mmHg 83%
    19:00 +12°C° 0.5 mm 11 mps 750 mmHg 82%
    20:00 +12°C° 0.5 mm 11 mps 749 mmHg 82%
    21:00 +12°C° 0.3 mm 11 mps 749 mmHg 81%
    22:00 +12°C° 0.3 mm 12 mps 749 mmHg 80%
    23:00 +12°C° 0.3 mm 12 mps 748 mmHg 78%

    24 January, Thursday

    Time Temperature Precipitation Wind Pressure Humidity
    00:00 +12°C° 0.6 mm 13 mps 748 mmHg 79%
    01:00 +13°C° 0.6 mm 13 mps 747 mmHg 79%
    02:00 +13°C° 0.6 mm 14 mps 746 mmHg 79%
    03:00 +12°C° 1.2 mm 14 mps 745 mmHg 80%
    04:00 +12°C° 1.2 mm 14 mps 745 mmHg 81%
    05:00 +12°C° 1.2 mm 14 mps 744 mmHg 83%
    06:00 +12°C° 2.1 mm 14 mps 743 mmHg 83%
    07:00 +12°C° 2.1 mm 14 mps 743 mmHg 83%
    08:00 +11°C° 2.1 mm 15 mps 743 mmHg 83%
    09:00 +11°C° 2 mm 15 mps 742 mmHg 80%
    10:00 +13°C° 2 mm 15 mps 742 mmHg 78%
    11:00 +13°C° 2 mm 16 mps 742 mmHg 76%
    12:00 +13°C° 0.7 mm 14 mps 742 mmHg 77%
    13:00 +13°C° 0.7 mm 12 mps 741 mmHg 78%
    14:00 +13°C° 0.7 mm 11 mps 741 mmHg 79%
    15:00 +13°C° 0.6 mm 10 mps 741 mmHg 80%
    16:00 +13°C° 0.6 mm 9 mps 742 mmHg 81%
    17:00 +13°C° 0.6 mm 8 mps 742 mmHg 82%
    18:00 +12°C° 0.6 mm 9 mps 743 mmHg 82%
    19:00 +12°C° 0.6 mm 9 mps 743 mmHg 81%
    20:00 +12°C° 0.6 mm 9 mps 744 mmHg 81%
    21:00 +12°C° 0.3 mm 9 mps 745 mmHg 79%
    22:00 +12°C° 0.3 mm 10 mps 746 mmHg 78%
    23:00 +12°C° 0.3 mm 11 mps 747 mmHg 76%

    25 January, Friday

    Time Temperature Precipitation Wind Pressure Humidity
    00:00 +12°C° 0.5 mm 10 mps 747 mmHg 77%
    01:00 +12°C° 0.5 mm 10 mps 748 mmHg 79%
    02:00 +12°C° 0.5 mm 9 mps 748 mmHg 80%
    03:00 +12°C° 0.7 mm 9 mps 748 mmHg 80%
    04:00 +12°C° 0.7 mm 9 mps 748 mmHg 80%
    05:00 +12°C° 0.7 mm 9 mps 748 mmHg 79%
    06:00 +12°C° 0.8 mm 9 mps 748 mmHg 79%
    07:00 +12°C° 0.8 mm 10 mps 748 mmHg 78%
    08:00 +12°C° 0.8 mm 10 mps 748 mmHg 77%
    09:00 +12°C° 1 mm 11 mps 748 mmHg 76%
    10:00 +12°C° 1 mm 11 mps 748 mmHg 75%
    11:00 +12°C° 1 mm 12 mps 748 mmHg 75%
    12:00 +12°C° 1.1 mm 11 mps 748 mmHg 76%
    13:00 +12°C° 1.1 mm 10 mps 748 mmHg 77%
    14:00 +12°C° 1.1 mm 10 mps 747 mmHg 78%
    15:00 +11°C° 2.6 mm 9 mps 747 mmHg 82%
    16:00 +11°C° 2.6 mm 7 mps 747 mmHg 86%
    17:00 +10°C° 2.6 mm 6 mps 746 mmHg 90%
    18:00 +9°C° 4.4 mm 5 mps 747 mmHg 91%
    19:00 +10°C° 4.4 mm 4 mps 747 mmHg 91%
    20:00 +9°C° 4.4 mm 3 mps 747 mmHg 92%
    21:00 +10°C° 0.4 mm 4 mps 747 mmHg 90%
    22:00 +10°C° 0.4 mm 5 mps 747 mmHg 87%
    23:00 +11°C° 0.4 mm 6 mps 747 mmHg 85%

    26 January, Saturday

    Time Temperature Precipitation Wind Pressure Humidity
    00:00 +11°C° 0.4 mm 7 mps 746 mmHg 82%
    01:00 +11°C° 0.4 mm 7 mps 746 mmHg 79%
    02:00 +11°C° 0.4 mm 8 mps 746 mmHg 76%
    03:00 +11°C° 1.2 mm 9 mps 745 mmHg 78%
    04:00 +11°C° 1.2 mm 10 mps 745 mmHg 80%
    05:00 +11°C° 1.2 mm 10 mps 745 mmHg 83%
    06:00 +11°C° 2.2 mm 10 mps 745 mmHg 82%
    07:00 +11°C° 2.2 mm 10 mps 745 mmHg 81%
    08:00 +11°C° 2.2 mm 10 mps 744 mmHg 80%
    09:00 +12°C° 1.4 mm 10 mps 745 mmHg 78%
    10:00 +12°C° 1.4 mm 10 mps 745 mmHg 76%
    11:00 +12°C° 1.4 mm 10 mps 745 mmHg 74%
    12:00 +12°C° 1 mm 10 mps 744 mmHg 75%
    13:00 +12°C° 1 mm 11 mps 744 mmHg 76%
    14:00 +12°C° 1 mm 11 mps 744 mmHg 77%
    15:00 +10°C° 0.7 mm 12 mps 744 mmHg 81%
    16:00 +9°C° 0.7 mm 12 mps 745 mmHg 84%
    17:00 +8°C° 0.7 mm 13 mps 745 mmHg 87%
    18:00 +8°C° 0.1 mm 12 mps 746 mmHg 85%
    19:00 +8°C° 0.1 mm 11 mps 746 mmHg 83%
    20:00 +8°C° 0.1 mm 10 mps 747 mmHg 81%
    21:00 +8°C° 0.1 mm 9 mps 747 mmHg 81%
    22:00 +9°C° 0.1 mm 8 mps 748 mmHg 80%
    23:00 +9°C° 0.1 mm 7 mps 748 mmHg 80%
    Show more